Home   Weather   Kirchheim unter Teck   Past weeks
Flag for Germany

Past Weather in Kirchheim unter Teck, Baden-Württemberg, Germany — Yesterday and Last 2 Weeks

Now
55 °F

Light rain. Passing clouds.


Feels Like: 55 °F
Forecast: 64 / 51 °F
Wind: 2 mph from North

Location: Stuttgart-Echterdingen

Current Time: Oct 21, 2019 at 11:19:17 pm

Latest Report: Oct 21, 2019 at 10:50 pm


Visibility: N/A

Pressure: 30.21 "Hg

Humidity: 94%

Dew Point: 54 °F

Location of Kirchheim unter TeckLocation

Past Weather in Kirchheim unter Teck — Graph

°F

Kirchheim unter Teck Temperature Yesterday

Maximum temperature yesterday: 72 °F (at 4:20 pm)
Minimum temperature yesterday: 48 °F (at 8:20 am)
Average temperature yesterday: 57 °F

High & Low Weather Summary for the Past Weeks

 TemperatureHumidityPressure
High79 °F (Oct 13, 3:20 pm)100% (Oct 10, 5:20 am)30.21 "Hg (Oct 10, 5:20 am)
Low41 °F (Oct 11, 6:20 am)39% (Oct 13, 4:20 pm)29.71 "Hg (Oct 15, 1:50 pm)
Average56 °F82%29.96 "Hg
* Reported Oct 6 10:20 pm — Oct 21 10:20 pm, Kirchheim unter Teck. Weather by CustomWeather, © 2019

Note: Actual official high and low records may vary slightly from our data, if they occured in-between our weather recording intervals... More about our weather records

Advertising

Kirchheim unter Teck Weather History for the Previous 24 Hours

Scroll right to see more
 ConditionsComfort  
Time TempWeatherWind HumidityBarometerVisibility
10:20 pm
Mon, Oct 21
55 °FLight rain. Passing clouds.3 mph88%30.21 "HgN/A
9:50 pm55 °FLight rain. Passing clouds.3 mph88%30.21 "HgN/A
9:20 pm57 °FLight rain. Passing clouds.2 mph82%30.18 "HgN/A
8:50 pm57 °FLight rain. Passing clouds.1 mph82%30.18 "HgN/A
8:20 pm57 °FLight rain. Passing clouds.5 mph82%30.18 "HgN/A
7:50 pm57 °FLight rain. Passing clouds.3 mph88%30.18 "HgN/A
7:20 pm57 °FLight rain. Passing clouds.3 mph82%30.18 "HgN/A
6:50 pm59 °FPassing clouds.5 mph77%30.15 "HgN/A
6:20 pm59 °FPartly sunny.7 mph82%30.15 "HgN/A
5:50 pm61 °FPartly sunny.9 mph83%30.15 "HgN/A
5:20 pm61 °FPartly sunny.8 mph83%30.12 "HgN/A
4:50 pm63 °FPassing clouds.8 mph77%30.12 "HgN/A
4:20 pm64 °FPassing clouds.6 mph73%30.12 "HgN/A
3:50 pm64 °FPartly sunny.6 mph73%30.12 "HgN/A
3:20 pm64 °FPartly sunny.7 mph73%30.12 "HgN/A
2:50 pm66 °FPassing clouds.8 mph68%30.12 "HgN/A
2:20 pm64 °FPassing clouds.8 mph64%30.12 "HgN/A
1:50 pm66 °FPassing clouds.2 mph64%30.12 "HgN/A
1:20 pm66 °FPassing clouds.3 mph60%30.09 "HgN/A
12:50 pm64 °FPassing clouds.5 mph78%30.12 "HgN/A
12:20 pm66 °FPassing clouds.5 mph73%30.09 "HgN/A
11:50 am63 °FPassing clouds.6 mph83%30.09 "HgN/A
10:50 am59 °FPassing clouds.2 mph88%30.07 "HgN/A
10:20 am55 °FPassing clouds.3 mph100%30.07 "HgN/A
9:50 am55 °FPassing clouds.1 mph94%30.07 "HgN/A
9:20 am55 °FPassing clouds.1 mph94%30.07 "HgN/A
8:50 am54 °FPassing clouds.3 mph100%30.04 "HgN/A
8:20 am54 °FLight rain. Passing clouds.1 mph94%30.04 "HgN/A
7:50 am54 °FLight rain. Passing clouds.2 mph94%30.01 "HgN/A
7:20 am54 °FLight fog.2 mph94%30.04 "Hg6 mi
6:50 am55 °FLight fog.1 mph94%30.01 "Hg6 mi
6:20 am54 °FPassing clouds.3 mph94%29.98 "HgN/A
5:50 am54 °FClear.1 mph94%29.98 "Hg10 mi
4:50 am54 °FPassing clouds.7 mph94%29.95 "HgN/A
4:20 am55 °FPassing clouds.3 mph94%29.95 "HgN/A
3:50 am55 °FPassing clouds.2 mph94%29.95 "HgN/A
3:20 am55 °FPassing clouds.1 mph100%29.92 "HgN/A
2:50 am55 °FPassing clouds.6 mph94%29.92 "HgN/A
1:50 am55 °FPassing clouds.2 mph94%29.92 "HgN/A
1:20 am54 °FPassing clouds.1 mph94%29.89 "HgN/A
12:50 am54 °FPassing clouds.3 mph88%29.89 "HgN/A
12:20 am55 °FClear.12 mph88%29.89 "Hg10 mi
11:50 pm
Sun, Oct 20
52 °FClear.2 mph94%29.83 "Hg10 mi
11:20 pm54 °FClear.2 mph94%29.83 "Hg10 mi
Weather by CustomWeather, © 2019

See weather overview